Time,TemperatureF,DewpointF,PressureIn,WindDirection,WindDirectionDegrees,WindSpeedMPH,WindSpeedGustMPH,Humidity,HourlyPrecipIn,Conditions,Clouds,dailyrainin,SoftwareType,DateUTC
2013-01-08 00:02:00,22.2,16.4,30.14,SE,135,0.0,0.0,78,0.00,,,0.00,WUHU216HW,2013-01-08 05:02:00,
2013-01-08 00:07:00,22.1,16.2,30.14,SE,135,0.0,0.0,78,0.00,,,0.00,WUHU216HW,2013-01-08 05:07:00,
2013-01-08 00:12:00,22.1,16.2,30.14,SE,135,0.0,0.0,78,0.00,,,0.00,WUHU216HW,2013-01-08 05:12:00,
2013-01-08 00:17:00,22.1,16.2,30.14,SE,135,0.0,0.0,78,0.00,,,0.00,WUHU216HW,2013-01-08 05:17:00,
2013-01-08 00:22:00,21.9,16.0,30.14,SE,135,0.0,0.0,78,0.00,,,0.00,WUHU216HW,2013-01-08 05:22:00,
2013-01-08 00:27:00,21.9,16.3,30.14,SE,135,0.0,0.0,79,0.00,,,0.00,WUHU216HW,2013-01-08 05:27:00,
2013-01-08 00:32:00,21.9,16.3,30.14,SE,135,0.0,0.0,79,0.00,,,0.00,WUHU216HW,2013-01-08 05:32:00,
2013-01-08 00:37:00,21.9,16.3,30.14,SE,135,0.0,0.0,79,0.00,,,0.00,WUHU216HW,2013-01-08 05:37:00,
2013-01-08 00:42:00,21.7,16.2,30.14,SE,135,0.0,0.0,79,0.00,,,0.00,WUHU216HW,2013-01-08 05:42:00,
2013-01-08 00:47:00,21.5,16.0,30.14,SE,135,0.0,0.0,79,0.00,,,0.00,WUHU216HW,2013-01-08 05:47:00,
2013-01-08 00:52:00,21.3,15.8,30.15,SE,135,0.0,0.0,79,0.00,,,0.00,WUHU216HW,2013-01-08 05:52:00,
2013-01-08 00:57:00,21.0,15.4,30.14,SE,135,0.0,0.0,79,0.00,,,0.00,WUHU216HW,2013-01-08 05:57:00,
2013-01-08 01:02:00,21.0,15.4,30.14,SE,135,0.0,0.0,79,0.00,,,0.00,WUHU216HW,2013-01-08 06:02:00,
2013-01-08 01:07:00,20.8,15.3,30.14,SE,135,0.0,0.0,79,0.00,,,0.00,WUHU216HW,2013-01-08 06:07:00,
2013-01-08 01:12:00,20.8,15.3,30.14,SE,135,0.0,0.0,79,0.00,,,0.00,WUHU216HW,2013-01-08 06:12:00,
2013-01-08 01:17:00,20.8,15.3,30.14,SE,135,0.0,0.0,79,0.00,,,0.00,WUHU216HW,2013-01-08 06:17:00,
2013-01-08 01:22:00,20.6,15.1,30.14,SE,135,0.0,0.0,79,0.00,,,0.00,WUHU216HW,2013-01-08 06:22:00,
2013-01-08 01:27:00,20.4,14.9,30.15,SE,135,0.0,0.0,79,0.00,,,0.00,WUHU216HW,2013-01-08 06:27:00,
2013-01-08 01:32:00,20.4,14.9,30.14,SE,135,0.0,0.0,79,0.00,,,0.00,WUHU216HW,2013-01-08 06:32:00,
2013-01-08 01:37:00,20.3,14.7,30.14,SE,135,0.0,0.0,79,0.00,,,0.00,WUHU216HW,2013-01-08 06:37:00,
2013-01-08 01:42:00,20.4,14.7,30.15,SE,135,0.0,0.0,79,0.00,,,0.00,WUHU216HW,2013-01-08 06:42:00,
2013-01-08 01:47:00,20.1,14.5,30.15,SE,135,0.0,0.0,79,0.00,,,0.00,WUHU216HW,2013-01-08 06:47:00,
2013-01-08 01:52:00,20.1,14.5,30.15,SE,135,0.0,0.0,79,0.00,,,0.00,WUHU216HW,2013-01-08 06:52:00,
2013-01-08 01:57:00,20.1,14.5,30.14,SE,135,0.0,0.0,79,0.00,,,0.00,WUHU216HW,2013-01-08 06:57:00,
2013-01-08 02:02:00,19.9,14.4,30.15,SE,135,0.0,0.0,79,0.00,,,0.00,WUHU216HW,2013-01-08 07:02:00,
2013-01-08 02:07:00,19.9,14.4,30.15,SE,135,0.0,0.0,79,0.00,,,0.00,WUHU216HW,2013-01-08 07:07:00,
2013-01-08 02:12:00,19.9,14.4,30.15,SE,135,0.0,0.0,79,0.00,,,0.00,WUHU216HW,2013-01-08 07:12:00,
2013-01-08 02:17:00,19.5,14.0,30.15,SE,135,0.0,0.0,79,0.00,,,0.00,WUHU216HW,2013-01-08 07:17:00,
2013-01-08 02:22:00,19.5,14.0,30.15,SE,135,0.0,0.0,79,0.00,,,0.00,WUHU216HW,2013-01-08 07:22:00,
2013-01-08 02:27:00,19.4,13.8,30.14,SE,135,0.0,0.0,79,0.00,,,0.00,WUHU216HW,2013-01-08 07:27:00,
2013-01-08 02:32:00,19.2,13.6,30.15,SE,135,0.0,0.0,79,0.00,,,0.00,WUHU216HW,2013-01-08 07:32:00,
2013-01-08 02:37:00,19.2,13.6,30.16,SE,135,0.0,0.0,79,0.00,,,0.00,WUHU216HW,2013-01-08 07:37:00,
2013-01-08 02:42:00,19.2,13.6,30.16,SE,135,0.0,0.0,79,0.00,,,0.00,WUHU216HW,2013-01-08 07:42:00,
2013-01-08 02:47:00,19.2,13.6,30.16,SE,135,0.0,0.0,79,0.00,,,0.00,WUHU216HW,2013-01-08 07:47:00,
2013-01-08 02:52:00,19.2,13.6,30.16,SE,135,0.0,0.0,79,0.00,,,0.00,WUHU216HW,2013-01-08 07:52:00,
2013-01-08 02:57:00,19.2,13.6,30.15,SE,135,0.0,0.0,79,0.00,,,0.00,WUHU216HW,2013-01-08 07:57:00,
2013-01-08 03:02:00,19.2,13.6,30.14,SE,135,0.0,0.0,79,0.00,,,0.00,WUHU216HW,2013-01-08 08:02:00,
2013-01-08 03:07:00,19.0,13.5,30.14,SE,135,0.0,0.0,79,0.00,,,0.00,WUHU216HW,2013-01-08 08:07:00,
2013-01-08 03:12:00,19.0,13.8,30.14,SE,135,0.0,0.0,80,0.00,,,0.00,WUHU216HW,2013-01-08 08:12:00,
2013-01-08 03:17:00,19.0,13.8,30.14,SE,135,0.0,0.0,80,0.00,,,0.00,WUHU216HW,2013-01-08 08:17:00,
2013-01-08 03:22:00,19.0,13.8,30.14,SE,135,0.0,0.0,80,0.00,,,0.00,WUHU216HW,2013-01-08 08:22:00,
2013-01-08 03:27:00,18.8,13.6,30.14,SE,135,0.0,0.0,80,0.00,,,0.00,WUHU216HW,2013-01-08 08:27:00,
2013-01-08 03:32:00,18.8,13.6,30.14,SE,135,0.0,0.0,80,0.00,,,0.00,WUHU216HW,2013-01-08 08:32:00,
2013-01-08 03:37:00,18.6,13.4,30.14,SE,135,0.0,0.0,80,0.00,,,0.00,WUHU216HW,2013-01-08 08:37:00,
2013-01-08 03:42:00,18.6,13.4,30.14,SE,135,0.0,0.0,80,0.00,,,0.00,WUHU216HW,2013-01-08 08:42:00,
2013-01-08 03:48:00,18.6,13.4,30.14,SE,135,0.0,0.0,80,0.00,,,0.00,WUHU216HW,2013-01-08 08:48:00,
2013-01-08 03:53:00,18.6,13.4,30.14,SE,135,0.0,0.0,80,0.00,,,0.00,WUHU216HW,2013-01-08 08:53:00,
2013-01-08 03:58:00,18.6,13.4,30.14,SE,135,0.0,0.0,80,0.00,,,0.00,WUHU216HW,2013-01-08 08:58:00,
2013-01-08 04:03:00,18.6,13.4,30.14,SE,135,0.0,0.0,80,0.00,,,0.00,WUHU216HW,2013-01-08 09:03:00,
2013-01-08 04:08:00,18.6,13.4,30.14,SE,135,0.0,0.0,80,0.00,,,0.00,WUHU216HW,2013-01-08 09:08:00,
2013-01-08 04:13:00,18.5,13.2,30.14,SE,135,0.0,0.0,80,0.00,,,0.00,WUHU216HW,2013-01-08 09:13:00,
2013-01-08 04:18:00,18.6,13.4,30.14,SE,135,0.0,0.0,80,0.00,,,0.00,WUHU216HW,2013-01-08 09:18:00,
2013-01-08 04:23:00,18.5,13.2,30.14,SE,135,0.0,0.0,80,0.00,,,0.00,WUHU216HW,2013-01-08 09:23:00,
2013-01-08 04:28:00,18.5,13.2,30.15,SE,135,0.0,0.0,80,0.00,,,0.00,WUHU216HW,2013-01-08 09:28:00,
2013-01-08 04:33:00,18.6,13.4,30.15,SE,135,0.0,0.0,80,0.00,,,0.00,WUHU216HW,2013-01-08 09:33:00,
2013-01-08 04:38:00,18.5,13.2,30.15,SE,135,0.0,0.0,80,0.00,,,0.00,WUHU216HW,2013-01-08 09:38:00,
2013-01-08 04:43:00,18.5,13.2,30.15,SE,135,0.0,0.0,80,0.00,,,0.00,WUHU216HW,2013-01-08 09:43:00,
2013-01-08 04:48:00,18.5,13.2,30.14,SE,135,0.0,0.0,80,0.00,,,0.00,WUHU216HW,2013-01-08 09:48:00,
2013-01-08 04:53:00,18.5,13.2,30.15,SE,135,0.0,0.0,80,0.00,,,0.00,WUHU216HW,2013-01-08 09:53:00,
2013-01-08 04:58:00,18.5,13.2,30.14,SE,135,0.0,0.0,80,0.00,,,0.00,WUHU216HW,2013-01-08 09:58:00,
2013-01-08 05:03:00,18.5,13.2,30.14,SE,135,0.0,0.0,80,0.00,,,0.00,WUHU216HW,2013-01-08 10:03:00,
2013-01-08 05:08:00,18.5,13.2,30.14,SE,135,0.0,0.0,80,0.00,,,0.00,WUHU216HW,2013-01-08 10:08:00,
2013-01-08 05:13:00,18.5,13.2,30.14,SE,135,0.0,0.0,80,0.00,,,0.00,WUHU216HW,2013-01-08 10:13:00,
2013-01-08 05:18:00,18.5,13.2,30.14,SE,135,0.0,0.0,80,0.00,,,0.00,WUHU216HW,2013-01-08 10:18:00,
2013-01-08 05:23:00,18.5,13.2,30.14,SE,135,0.0,0.0,80,0.00,,,0.00,WUHU216HW,2013-01-08 10:23:00,
2013-01-08 05:28:00,18.5,13.2,30.14,SE,135,0.0,0.0,80,0.00,,,0.00,WUHU216HW,2013-01-08 10:28:00,
2013-01-08 05:33:00,18.5,13.2,30.14,SE,135,0.0,0.0,80,0.00,,,0.00,WUHU216HW,2013-01-08 10:33:00,
2013-01-08 05:38:00,18.5,13.2,30.15,SE,135,0.0,0.0,80,0.00,,,0.00,WUHU216HW,2013-01-08 10:38:00,
2013-01-08 05:43:00,18.5,13.2,30.16,SE,135,0.0,0.0,80,0.00,,,0.00,WUHU216HW,2013-01-08 10:43:00,
2013-01-08 05:48:00,18.3,13.1,30.15,SE,135,0.0,0.0,80,0.00,,,0.00,WUHU216HW,2013-01-08 10:48:00,
2013-01-08 05:53:00,18.3,13.1,30.16,SE,135,0.0,0.0,80,0.00,,,0.00,WUHU216HW,2013-01-08 10:53:00,
2013-01-08 05:58:00,18.3,13.1,30.15,SE,135,0.0,0.0,80,0.00,,,0.00,WUHU216HW,2013-01-08 10:58:00,
2013-01-08 06:03:00,18.3,13.3,30.15,SE,135,0.0,0.0,81,0.00,,,0.00,WUHU216HW,2013-01-08 11:03:00,
2013-01-08 06:08:00,18.3,13.3,30.15,SE,135,0.0,0.0,81,0.00,,,0.00,WUHU216HW,2013-01-08 11:08:00,
2013-01-08 06:13:00,18.3,13.3,30.15,SE,135,0.0,0.0,81,0.00,,,0.00,WUHU216HW,2013-01-08 11:13:00,
2013-01-08 06:18:00,18.3,13.3,30.15,SE,135,0.0,0.0,81,0.00,,,0.00,WUHU216HW,2013-01-08 11:18:00,
2013-01-08 06:23:00,18.3,13.3,30.16,SE,135,0.0,0.0,81,0.00,,,0.00,WUHU216HW,2013-01-08 11:23:00,
2013-01-08 06:28:00,18.1,13.1,30.16,SE,135,0.0,0.0,81,0.00,,,0.00,WUHU216HW,2013-01-08 11:28:00,
2013-01-08 06:33:00,18.1,13.1,30.16,SE,135,0.0,0.0,81,0.00,,,0.00,WUHU216HW,2013-01-08 11:33:00,
2013-01-08 06:38:00,18.1,13.1,30.16,SE,135,0.0,0.0,81,0.00,,,0.00,WUHU216HW,2013-01-08 11:38:00,
2013-01-08 06:43:00,17.9,13.0,30.15,SE,135,0.0,0.0,81,0.00,,,0.00,WUHU216HW,2013-01-08 11:43:00,
2013-01-08 06:48:00,17.9,13.0,30.16,SE,135,0.0,0.0,81,0.00,,,0.00,WUHU216HW,2013-01-08 11:48:00,
2013-01-08 06:53:00,17.7,12.8,30.16,SE,135,0.0,0.0,81,0.00,,,0.00,WUHU216HW,2013-01-08 11:53:00,
2013-01-08 06:58:00,17.7,12.8,30.16,SE,135,0.0,0.0,81,0.00,,,0.00,WUHU216HW,2013-01-08 11:58:00,
2013-01-08 07:03:00,17.7,12.8,30.17,SE,135,0.0,0.0,81,0.00,,,0.00,WUHU216HW,2013-01-08 12:03:00,
2013-01-08 07:08:00,17.4,12.4,30.17,SE,135,0.0,0.0,81,0.00,,,0.00,WUHU216HW,2013-01-08 12:08:00,
2013-01-08 07:13:00,17.4,12.4,30.17,SE,135,0.0,0.0,81,0.00,,,0.00,WUHU216HW,2013-01-08 12:13:00,
2013-01-08 07:18:00,17.4,12.4,30.17,SE,135,0.0,0.0,81,0.00,,,0.00,WUHU216HW,2013-01-08 12:18:00,
2013-01-08 07:23:00,17.4,12.4,30.17,SE,135,0.0,0.0,81,0.00,,,0.00,WUHU216HW,2013-01-08 12:23:00,
2013-01-08 07:28:00,17.4,12.4,30.18,SE,135,0.0,0.0,81,0.00,,,0.00,WUHU216HW,2013-01-08 12:28:00,
2013-01-08 07:33:00,17.4,12.4,30.17,SE,135,0.0,0.0,81,0.00,,,0.00,WUHU216HW,2013-01-08 12:33:00,
2013-01-08 07:38:00,17.4,12.4,30.17,SE,135,0.0,0.0,81,0.00,,,0.00,WUHU216HW,2013-01-08 12:38:00,
2013-01-08 07:43:00,17.2,12.3,30.17,SE,135,0.0,0.0,81,0.00,,,0.00,WUHU216HW,2013-01-08 12:43:00,
2013-01-08 07:48:00,17.2,12.3,30.17,SE,135,0.0,0.0,81,0.00,,,0.00,WUHU216HW,2013-01-08 12:48:00,
2013-01-08 07:53:00,17.2,12.3,30.17,SE,135,0.0,0.0,81,0.00,,,0.00,WUHU216HW,2013-01-08 12:53:00,
2013-01-08 07:58:00,17.2,12.3,30.18,SE,135,0.0,0.0,81,0.00,,,0.00,WUHU216HW,2013-01-08 12:58:00,
2013-01-08 08:03:00,16.8,11.9,30.18,SE,135,0.0,0.0,81,0.00,,,0.00,WUHU216HW,2013-01-08 13:03:00,
2013-01-08 08:08:00,16.8,11.9,30.18,SE,135,0.0,0.0,81,0.00,,,0.00,WUHU216HW,2013-01-08 13:08:00,
2013-01-08 08:13:00,16.8,11.9,30.18,SE,135,0.0,0.0,81,0.00,,,0.00,WUHU216HW,2013-01-08 13:13:00,
2013-01-08 08:18:00,16.8,11.9,30.19,SE,135,0.0,0.0,81,0.00,,,0.00,WUHU216HW,2013-01-08 13:18:00,
2013-01-08 08:23:00,16.8,11.9,30.19,SE,135,0.0,0.0,81,0.00,,,0.00,WUHU216HW,2013-01-08 13:23:00,
2013-01-08 08:28:00,16.7,11.8,30.19,SE,135,0.0,0.0,81,0.00,,,0.00,WUHU216HW,2013-01-08 13:28:00,
2013-01-08 08:33:00,16.8,11.9,30.19,SE,135,0.0,0.0,81,0.00,,,0.00,WUHU216HW,2013-01-08 13:33:00,
2013-01-08 08:38:00,16.7,11.8,30.19,SE,135,0.0,0.0,81,0.00,,,0.00,WUHU216HW,2013-01-08 13:38:00,
2013-01-08 08:43:00,16.7,11.8,30.19,SE,135,0.0,0.0,81,0.00,,,0.00,WUHU216HW,2013-01-08 13:43:00,
2013-01-08 08:48:00,16.8,11.9,30.19,SE,135,0.0,0.0,81,0.00,,,0.00,WUHU216HW,2013-01-08 13:48:00,
2013-01-08 08:53:00,16.8,11.9,30.19,SE,135,0.0,0.0,81,0.00,,,0.00,WUHU216HW,2013-01-08 13:53:00,
2013-01-08 08:58:00,16.8,11.9,30.20,SE,135,0.0,0.0,81,0.00,,,0.00,WUHU216HW,2013-01-08 13:58:00,
2013-01-08 09:03:00,17.2,12.5,30.20,ESE,113,0.0,0.0,82,0.00,,,0.00,WUHU216HW,2013-01-08 14:03:00,
2013-01-08 09:08:00,17.2,12.5,30.20,ESE,113,0.0,0.0,82,0.00,,,0.00,WUHU216HW,2013-01-08 14:08:00,
2013-01-08 09:13:00,17.4,12.7,30.19,ESE,113,0.0,0.0,82,0.00,,,0.00,WUHU216HW,2013-01-08 14:13:00,
2013-01-08 09:18:00,17.6,12.9,30.20,ESE,113,0.0,0.0,82,0.00,,,0.00,WUHU216HW,2013-01-08 14:18:00,
2013-01-08 09:23:00,17.7,13.1,30.20,ESE,113,0.0,0.0,82,0.00,,,0.00,WUHU216HW,2013-01-08 14:23:00,
2013-01-08 09:28:00,17.9,13.2,30.20,ESE,113,0.0,0.0,82,0.00,,,0.00,WUHU216HW,2013-01-08 14:28:00,
2013-01-08 09:33:00,18.3,13.6,30.20,ESE,113,0.0,0.0,82,0.00,,,0.00,WUHU216HW,2013-01-08 14:33:00,
2013-01-08 09:38:00,18.6,14.0,30.19,ESE,113,0.0,0.0,82,0.00,,,0.00,WUHU216HW,2013-01-08 14:38:00,
2013-01-08 09:43:00,19.2,14.5,30.19,ESE,113,0.0,0.0,82,0.00,,,0.00,WUHU216HW,2013-01-08 14:43:00,
2013-01-08 09:48:00,19.5,14.9,30.19,ESE,113,0.0,0.0,82,0.00,,,0.00,WUHU216HW,2013-01-08 14:48:00,
2013-01-08 09:53:00,19.7,15.0,30.20,ESE,113,0.0,0.0,82,0.00,,,0.00,WUHU216HW,2013-01-08 14:53:00,
2013-01-08 09:58:00,19.9,15.2,30.20,ESE,113,0.0,0.0,82,0.00,,,0.00,WUHU216HW,2013-01-08 14:58:00,
2013-01-08 10:03:00,20.4,15.8,30.19,ESE,113,0.0,0.0,82,0.00,,,0.00,WUHU216HW,2013-01-08 15:03:00,
2013-01-08 10:08:00,20.8,16.1,30.20,ESE,113,0.0,0.0,82,0.00,,,0.00,WUHU216HW,2013-01-08 15:08:00,
2013-01-08 10:13:00,21.3,16.9,30.20,ESE,113,0.0,0.0,83,0.00,,,0.00,WUHU216HW,2013-01-08 15:13:00,
2013-01-08 10:18:00,21.9,17.5,30.20,ESE,113,0.0,0.0,83,0.00,,,0.00,WUHU216HW,2013-01-08 15:18:00,
2013-01-08 10:23:00,22.2,17.8,30.20,ESE,113,0.0,0.0,83,0.00,,,0.00,WUHU216HW,2013-01-08 15:23:00,
2013-01-08 10:28:00,22.8,18.4,30.20,ESE,113,0.0,0.0,83,0.00,,,0.00,WUHU216HW,2013-01-08 15:28:00,
2013-01-08 10:33:00,23.7,19.3,30.20,SE,135,0.0,0.0,83,0.00,,,0.00,WUHU216HW,2013-01-08 15:33:00,
2013-01-08 10:38:00,24.4,20.3,30.20,SE,135,0.0,0.0,84,0.00,,,0.00,WUHU216HW,2013-01-08 15:38:00,
2013-01-08 10:43:00,24.8,20.6,30.20,SE,135,0.0,0.0,84,0.00,,,0.00,WUHU216HW,2013-01-08 15:43:00,
2013-01-08 10:48:00,25.5,21.3,30.20,ESE,113,0.0,0.0,84,0.00,,,0.00,WUHU216HW,2013-01-08 15:48:00,
2013-01-08 10:53:00,26.0,21.8,30.19,ESE,113,0.0,0.0,84,0.00,,,0.00,WUHU216HW,2013-01-08 15:53:00,
2013-01-08 10:58:00,26.7,22.5,30.19,ESE,113,0.0,0.0,84,0.00,,,0.00,WUHU216HW,2013-01-08 15:58:00,
2013-01-08 11:03:00,27.5,23.2,30.19,ESE,113,0.0,0.0,84,0.00,,,0.00,WUHU216HW,2013-01-08 16:03:00,
2013-01-08 11:08:00,28.0,24.0,30.19,ESE,113,0.0,0.0,85,0.00,,,0.00,WUHU216HW,2013-01-08 16:08:00,
2013-01-08 11:13:00,28.5,24.6,30.19,ESE,113,0.0,0.0,85,0.00,,,0.00,WUHU216HW,2013-01-08 16:13:00,
2013-01-08 11:18:00,29.6,25.7,30.19,ESE,113,0.0,0.0,85,0.00,,,0.00,WUHU216HW,2013-01-08 16:18:00,
2013-01-08 11:23:00,30.3,26.4,30.19,ESE,113,0.0,0.0,85,0.00,,,0.00,WUHU216HW,2013-01-08 16:23:00,
2013-01-08 11:28:00,30.9,26.6,30.19,East,90,0.0,4.6,84,0.00,,,0.00,WUHU216HW,2013-01-08 16:28:00,
2013-01-08 11:33:00,31.8,27.5,30.19,SW,225,0.0,4.6,84,0.00,,,0.00,WUHU216HW,2013-01-08 16:33:00,
2013-01-08 11:38:00,32.3,28.0,30.18,SE,135,0.0,0.0,84,0.00,,,0.00,WUHU216HW,2013-01-08 16:38:00,
2013-01-08 11:43:00,32.7,28.4,30.18,SE,135,0.0,0.0,84,0.00,,,0.00,WUHU216HW,2013-01-08 16:43:00,
2013-01-08 11:48:00,33.6,28.9,30.17,ESE,113,0.0,0.0,83,0.00,,,0.00,WUHU216HW,2013-01-08 16:48:00,
2013-01-08 11:53:00,33.9,29.2,30.17,ESE,113,0.0,0.0,83,0.00,,,0.00,WUHU216HW,2013-01-08 16:53:00,
2013-01-08 11:58:00,34.1,29.4,30.17,ESE,113,0.0,0.0,83,0.00,,,0.00,WUHU216HW,2013-01-08 16:58:00,
2013-01-08 12:03:00,34.3,29.6,30.17,ESE,113,0.0,0.0,83,0.00,,,0.00,WUHU216HW,2013-01-08 17:03:00,
2013-01-08 12:08:00,34.7,29.9,30.16,SSE,158,0.0,0.0,83,0.00,,,0.00,WUHU216HW,2013-01-08 17:08:00,
2013-01-08 12:13:00,35.4,30.7,30.16,SE,135,0.0,1.3,83,0.00,,,0.00,WUHU216HW,2013-01-08 17:13:00,
2013-01-08 12:18:00,36.5,31.4,30.16,SE,135,0.0,1.3,82,0.00,,,0.00,WUHU216HW,2013-01-08 17:18:00,
2013-01-08 12:23:00,37.2,31.9,30.16,SE,135,1.5,1.5,81,0.00,,,0.00,WUHU216HW,2013-01-08 17:23:00,
2013-01-08 12:28:00,37.7,32.4,30.16,SE,135,4.0,4.0,81,0.00,,,0.00,WUHU216HW,2013-01-08 17:28:00,
2013-01-08 12:33:00,38.4,32.9,30.16,SE,135,1.3,4.0,80,0.00,,,0.00,WUHU216HW,2013-01-08 17:33:00,
2013-01-08 12:38:00,38.8,32.9,30.15,South,180,0.0,2.6,79,0.00,,,0.00,WUHU216HW,2013-01-08 17:38:00,
2013-01-08 12:43:00,39.3,33.4,30.15,South,180,0.0,2.2,79,0.00,,,0.00,WUHU216HW,2013-01-08 17:43:00,
2013-01-08 12:48:00,39.7,33.7,30.15,ESE,113,0.0,2.2,79,0.00,,,0.00,WUHU216HW,2013-01-08 17:48:00,
2013-01-08 12:53:00,39.9,33.5,30.14,SSE,158,0.0,0.0,78,0.00,,,0.00,WUHU216HW,2013-01-08 17:53:00,
2013-01-08 12:58:00,40.4,34.0,30.14,SSE,158,0.0,5.1,78,0.00,,,0.00,WUHU216HW,2013-01-08 17:58:00,
2013-01-08 13:03:00,41.0,34.2,30.14,ESE,113,2.9,5.1,77,0.00,,,0.00,WUHU216HW,2013-01-08 18:03:00,
2013-01-08 13:08:00,41.5,34.4,30.14,SE,135,0.0,2.9,76,0.00,,,0.00,WUHU216HW,2013-01-08 18:08:00,
2013-01-08 13:13:00,41.7,34.3,30.14,SE,135,1.7,8.2,75,0.00,,,0.00,WUHU216HW,2013-01-08 18:13:00,
2013-01-08 13:18:00,42.0,34.7,30.14,SE,135,0.0,8.2,75,0.00,,,0.00,WUHU216HW,2013-01-08 18:18:00,
2013-01-08 13:23:00,42.4,35.0,30.14,SE,135,1.7,1.7,75,0.00,,,0.00,WUHU216HW,2013-01-08 18:23:00,
2013-01-08 13:28:00,42.4,34.7,30.14,SE,135,0.0,1.7,74,0.00,,,0.00,WUHU216HW,2013-01-08 18:28:00,
2013-01-08 13:33:00,42.6,34.9,30.13,SE,135,0.0,0.0,74,0.00,,,0.00,WUHU216HW,2013-01-08 18:33:00,
2013-01-08 13:38:00,42.9,35.2,30.13,SE,135,4.9,4.9,74,0.00,,,0.00,WUHU216HW,2013-01-08 18:38:00,
2013-01-08 13:43:00,43.1,35.4,30.13,SE,135,4.0,4.9,74,0.00,,,0.00,WUHU216HW,2013-01-08 18:43:00,
2013-01-08 13:48:00,43.5,35.0,30.13,SSE,158,4.6,4.6,72,0.00,,,0.00,WUHU216HW,2013-01-08 18:48:00,
2013-01-08 13:53:00,43.7,35.2,30.13,SE,135,0.0,4.6,72,0.00,,,0.00,WUHU216HW,2013-01-08 18:53:00,
2013-01-08 13:58:00,44.0,35.6,30.13,SE,135,0.0,4.6,72,0.00,,,0.00,WUHU216HW,2013-01-08 18:58:00,
2013-01-08 14:03:00,44.4,35.9,30.13,SE,135,0.0,1.3,72,0.00,,,0.00,WUHU216HW,2013-01-08 19:03:00,
2013-01-08 14:08:00,44.4,35.5,30.13,SSE,158,0.0,0.0,71,0.00,,,0.00,WUHU216HW,2013-01-08 19:08:00,
2013-01-08 14:13:00,44.4,35.2,30.13,SE,135,3.5,3.5,70,0.00,,,0.00,WUHU216HW,2013-01-08 19:13:00,
2013-01-08 14:18:00,44.6,35.4,30.13,SSW,203,1.5,3.5,70,0.00,,,0.00,WUHU216HW,2013-01-08 19:18:00,
2013-01-08 14:23:00,44.6,35.4,30.13,SSE,158,0.0,1.5,70,0.00,,,0.00,WUHU216HW,2013-01-08 19:23:00,
2013-01-08 14:28:00,44.6,35.6,30.13,SSE,158,2.4,2.4,70,0.00,,,0.00,WUHU216HW,2013-01-08 19:28:00,
2013-01-08 14:33:00,44.9,35.3,30.13,SE,135,0.0,2.4,69,0.00,,,0.00,WUHU216HW,2013-01-08 19:33:00,
2013-01-08 14:38:00,45.1,35.1,30.13,SE,135,4.9,4.9,68,0.00,,,0.00,WUHU216HW,2013-01-08 19:38:00,
2013-01-08 14:43:00,45.1,35.1,30.13,South,180,0.0,4.9,68,0.00,,,0.00,WUHU216HW,2013-01-08 19:43:00,
2013-01-08 14:48:00,45.1,34.8,30.13,SSE,158,3.1,3.1,67,0.00,,,0.00,WUHU216HW,2013-01-08 19:48:00,
2013-01-08 14:53:00,45.3,34.9,30.13,SSW,203,5.8,5.8,67,0.00,,,0.00,WUHU216HW,2013-01-08 19:53:00,
2013-01-08 14:58:00,45.3,34.5,30.13,SE,135,0.0,5.8,66,0.00,,,0.00,WUHU216HW,2013-01-08 19:58:00,
2013-01-08 15:03:00,45.3,34.5,30.12,SSE,158,0.6,0.8,66,0.00,,,0.00,WUHU216HW,2013-01-08 20:03:00,
2013-01-08 15:08:00,45.5,34.7,30.12,SE,135,0.8,0.8,66,0.00,,,0.00,WUHU216HW,2013-01-08 20:08:00,
2013-01-08 15:13:00,45.5,34.3,30.12,SE,135,0.0,2.4,65,0.00,,,0.00,WUHU216HW,2013-01-08 20:13:00,
2013-01-08 15:18:00,45.5,34.3,30.12,South,180,0.0,2.4,65,0.00,,,0.00,WUHU216HW,2013-01-08 20:18:00,